User: anonymous
Location: Unspecified
(0.0000°N, 0.0000°E)
Time: 16:28:30
(UTC+02:00)
Language:

Cosmos 1125 Rocket - Orbit

View from above orbital plane
View from above orbital plane
View from above satellite
View from above satellite

Ground track
Ground track

The orbit data is extracted from the following two-line orbital elements,

1 11511U 79078B   14113.05289495  .00000341  00000-0  12506-3 0  7715
2 11511 074.0369 270.6076 0014913 073.9801 067.8648 14.36392659813328
Epoch (UTC): 23 April 2014 01:16:10
Eccentricity: 0.0014913
inclination: 74.0369°
perigee height: 760 km
apogee height: 781 km
right ascension of ascending node: 270.6076°
argument of perigee: 73.9801°
revolutions per day: 14.36392659
mean anomaly at epoch: 67.8648°
orbit number at epoch: 81332

The dashed part of the orbit path shows where the satellite is in the earth's shadow,  

DLR